�������l�o���
Date,Time,MP-1(��Sv/h),MP-2(��Sv/h),MP-3(��Sv/h),MP-4(��Sv/h),MP-5(��Sv/h),MP-6(��Sv/h),MP-7(��Sv/h),MP-8(��Sv/h),����,����(m/s),���J
2023/09/15,00:00,0.534,0.811,0.493,0.994,0.711,0.325,0.573,0.533,�k��,3.3,��
2023/09/15,00:10,0.534,0.811,0.494,0.995,0.713,0.324,0.573,0.534,��,2.3,��
2023/09/15,00:20,0.534,0.810,0.492,0.995,0.710,0.325,0.573,0.533,��,2.6,��
2023/09/15,00:30,0.533,0.811,0.493,0.994,0.712,0.326,0.573,0.534,��,2.3,��
2023/09/15,00:40,0.533,0.811,0.493,0.996,0.710,0.324,0.574,0.532,���쐼,1.2,��
2023/09/15,00:50,0.535,0.809,0.494,0.994,0.710,0.325,0.575,0.532,-,CALM,��
2023/09/15,01:00,0.534,0.810,0.494,0.997,0.710,0.326,0.575,0.533,�k�k��,0.9,��
2023/09/15,01:10,0.534,0.809,0.493,0.995,0.711,0.326,0.573,0.532,�k��,1.5,�L
2023/09/15,01:20,0.537,0.811,0.494,0.994,0.712,0.325,0.574,0.533,�k�k��,3.2,�L
2023/09/15,01:30,0.534,0.811,0.492,0.996,0.712,0.325,0.574,0.535,�k�k��,3.3,�L
2023/09/15,01:40,0.535,0.811,0.493,0.993,0.711,0.326,0.573,0.534,�k��,2.2,�L
2023/09/15,01:50,0.535,0.811,0.494,0.995,0.711,0.327,0.571,0.535,�k��,5.7,��
2023/09/15,02:00,0.533,0.810,0.495,0.995,0.710,0.326,0.573,0.535,���k��,5.7,�L
2023/09/15,02:10,0.534,0.812,0.495,0.994,0.712,0.326,0.572,0.533,�k��,5.0,�L
2023/09/15,02:20,0.535,0.810,0.495,0.995,0.710,0.328,0.574,0.535,�k��,3.6,�L
2023/09/15,02:30,0.533,0.812,0.498,0.998,0.710,0.326,0.572,0.535,�k��,4.3,��
2023/09/15,02:40,0.534,0.811,0.494,0.996,0.710,0.324,0.573,0.533,�k��,3.3,�L
2023/09/15,02:50,0.535,0.810,0.495,0.996,0.710,0.325,0.572,0.535,�k��,3.4,�L
2023/09/15,03:00,0.534,0.809,0.494,0.994,0.709,0.323,0.572,0.533,�k��,3.0,�L
2023/09/15,03:10,0.536,0.811,0.494,0.995,0.707,0.324,0.571,0.533,���k��,2.6,��
2023/09/15,03:20,0.535,0.811,0.494,0.994,0.708,0.323,0.571,0.533,���k��,2.6,��
2023/09/15,03:30,0.534,0.811,0.493,0.992,0.707,0.324,0.571,0.532,��,2.2,��
2023/09/15,03:40,0.535,0.810,0.494,0.996,0.706,0.323,0.572,0.533,�k��,1.5,�L
2023/09/15,03:50,0.532,0.808,0.494,0.994,0.707,0.323,0.571,0.532,���k��,2.3,��
2023/09/15,04:00,0.533,0.809,0.492,0.995,0.708,0.323,0.572,0.531,���k��,3.3,��
2023/09/15,04:10,0.531,0.811,0.493,0.996,0.705,0.322,0.572,0.532,���k��,5.4,��
2023/09/15,04:20,0.534,0.808,0.492,0.995,0.707,0.322,0.571,0.533,���k��,5.8,�L
2023/09/15,04:30,0.533,0.810,0.494,0.994,0.706,0.323,0.571,0.532,���k��,5.7,�L
2023/09/15,04:40,0.533,0.808,0.494,0.994,0.707,0.321,0.571,0.532,�k��,4.8,�L
2023/09/15,04:50,0.531,0.810,0.493,0.993,0.704,0.322,0.570,0.532,���k��,4.6,�L
2023/09/15,05:00,0.533,0.810,0.492,0.995,0.705,0.322,0.571,0.533,�k��,4.9,��
2023/09/15,05:10,0.533,0.809,0.492,0.993,0.705,0.321,0.571,0.532,���k��,5.4,��
2023/09/15,05:20,0.533,0.809,0.493,0.994,0.707,0.321,0.572,0.532,�k��,5.2,�L
2023/09/15,05:30,0.531,0.810,0.492,0.993,0.706,0.322,0.572,0.532,�k��,4.3,�L
2023/09/15,05:40,0.533,0.809,0.493,0.994,0.706,0.323,0.571,0.531,�k��,3.2,��
2023/09/15,05:50,0.531,0.810,0.492,0.994,0.705,0.321,0.570,0.534,�k��,3.0,��
2023/09/15,06:00,0.531,0.812,0.492,0.994,0.707,0.321,0.572,0.532,�k��,3.5,��
2023/09/15,06:10,0.532,0.810,0.491,0.994,0.705,0.320,0.572,0.532,�k�k��,3.2,�L
2023/09/15,06:20,0.532,0.809,0.493,0.993,0.706,0.321,0.571,0.531,�k��,1.9,��
2023/09/15,06:30,0.533,0.810,0.492,0.994,0.705,0.322,0.571,0.531,�k��,2.2,��
2023/09/15,06:40,0.532,0.810,0.491,0.994,0.705,0.321,0.571,0.533,���k��,1.7,�L
2023/09/15,06:50,0.533,0.809,0.492,0.994,0.706,0.322,0.572,0.532,�k��,0.9,�L
2023/09/15,07:00,0.531,0.809,0.491,0.993,0.703,0.322,0.572,0.532,�k��,1.9,��
2023/09/15,07:10,0.532,0.812,0.490,0.993,0.705,0.322,0.574,0.532,�k��,1.7,��
2023/09/15,07:20,0.532,0.809,0.492,0.995,0.705,0.320,0.572,0.532,�k�k��,1.1,��
2023/09/15,07:30,0.534,0.810,0.495,0.993,0.706,0.323,0.573,0.532,�k��,1.5,��
2023/09/15,07:40,0.533,0.809,0.492,0.994,0.708,0.323,0.572,0.531,�k�k��,2.3,��
2023/09/15,07:50,0.533,0.810,0.493,0.994,0.706,0.321,0.572,0.530,�k,3.6,��
2023/09/15,08:00,0.533,0.811,0.493,0.994,0.707,0.321,0.572,0.533,�k,2.3,��
2023/09/15,08:10,0.534,0.811,0.492,0.992,0.707,0.322,0.572,0.532,�k,3.1,��
2023/09/15,08:20,0.534,0.811,0.492,0.994,0.707,0.323,0.573,0.532,�k,3.8,��
2023/09/15,08:30,0.534,0.808,0.493,0.993,0.706,0.321,0.572,0.532,�k,3.7,��
2023/09/15,08:40,0.535,0.808,0.492,0.992,0.707,0.322,0.572,0.534,�k�k��,4.7,��
2023/09/15,08:50,0.534,0.808,0.491,0.994,0.708,0.322,0.574,0.531,�k�k��,4.9,��
2023/09/15,09:00,0.536,0.809,0.491,0.993,0.707,0.322,0.573,0.532,�k�k��,4.7,��
2023/09/15,09:10,0.533,0.809,0.494,0.993,0.707,0.321,0.573,0.533,�k�k��,5.2,��
2023/09/15,09:20,0.533,0.809,0.493,0.995,0.708,0.323,0.573,0.534,�k,4.9,��
2023/09/15,09:30,0.535,0.811,0.491,0.996,0.709,0.322,0.574,0.532,�k�k��,5.2,��
2023/09/15,09:40,0.533,0.809,0.490,0.993,0.707,0.323,0.575,0.530,�k,5.5,��
2023/09/15,09:50,0.534,0.808,0.493,0.994,0.709,0.321,0.572,0.531,�k�k��,4.5,��
2023/09/15,10:00,0.533,0.808,0.496,0.994,0.708,0.321,0.571,0.532,�k�k��,4.4,��
2023/09/15,10:10,0.528,0.811,0.492,0.998,0.707,0.323,0.571,0.532,�k,3.6,��
2023/09/15,10:20,0.527,0.813,0.491,0.995,0.707,0.322,0.571,0.532,�k�k��,4.6,��
2023/09/15,10:30,0.530,0.810,0.493,0.993,0.708,0.321,0.572,0.533,�k�k��,5.8,��
2023/09/15,10:40,0.535,0.815,0.493,0.995,0.708,0.321,0.570,0.531,�k�k��,5.9,��
2023/09/15,10:50,0.533,0.810,0.493,0.994,0.707,0.321,0.571,0.532,�k�k��,5.9,��
2023/09/15,11:00,0.535,0.811,0.492,0.994,0.710,0.321,0.571,0.533,�k�k��,6.8,��
2023/09/15,11:10,0.535,0.810,0.491,0.994,0.706,0.321,0.571,0.532,�k�k��,7.2,��
2023/09/15,11:20,0.536,0.812,0.494,0.995,0.708,0.322,0.572,0.532,�k�k��,6.5,�L
2023/09/15,11:30,0.536,0.812,0.491,0.997,0.708,0.320,0.571,0.530,�k,5.8,�L
2023/09/15,11:40,0.536,0.809,0.492,0.997,0.710,0.321,0.571,0.532,�k�k��,5.3,�L
2023/09/15,11:50,0.534,0.808,0.492,0.996,0.707,0.322,0.572,0.532,�k��,5.8,�L
2023/09/15,12:00,0.534,0.808,0.492,0.997,0.710,0.322,0.571,0.532,�k�k��,4.3,�L
2023/09/15,12:10,0.535,0.808,0.493,0.997,0.710,0.321,0.572,0.532,�k�k��,4.5,��
2023/09/15,12:20,0.534,0.808,0.493,0.996,0.709,0.321,0.572,0.533,�k��,4.7,��
2023/09/15,12:30,0.536,0.806,0.494,0.996,0.711,0.323,0.571,0.530,�k��,4.4,�L
2023/09/15,12:40,0.535,0.805,0.491,0.998,0.710,0.322,0.573,0.531,�k��,4.1,�L
2023/09/15,12:50,0.533,0.808,0.492,0.997,0.713,0.323,0.573,0.532,���k��,4.3,�L
2023/09/15,13:00,0.532,0.807,0.493,0.995,0.711,0.324,0.573,0.533,���k��,4.4,�L
2023/09/15,13:10,0.535,0.806,0.494,0.997,0.712,0.322,0.573,0.532,�k��,4.5,�L
2023/09/15,13:20,0.533,0.808,0.491,0.995,0.712,0.323,0.572,0.531,���k��,3.5,�L
2023/09/15,13:30,0.533,0.806,0.492,0.996,0.711,0.323,0.572,0.531,���k��,3.6,�L
2023/09/15,13:40,0.535,0.807,0.493,0.997,0.710,0.323,0.572,0.531,�k��,3.1,�L
2023/09/15,13:50,0.537,0.807,0.494,0.998,0.711,0.325,0.572,0.533,���k��,4.3,�L
2023/09/15,14:00,0.535,0.807,0.494,0.994,0.709,0.324,0.573,0.535,���k��,5.0,�L
2023/09/15,14:10,0.536,0.808,0.494,0.995,0.709,0.323,0.572,0.533,���k��,5.0,�L
2023/09/15,14:20,0.535,0.809,0.493,0.997,0.711,0.324,0.573,0.533,���k��,5.8,��
2023/09/15,14:30,0.535,0.808,0.493,0.995,0.709,0.323,0.572,0.533,���k��,3.6,��
2023/09/15,14:40,0.535,0.806,0.492,0.997,0.708,0.322,0.571,0.533,���k��,5.8,�L
2023/09/15,14:50,0.534,0.808,0.493,0.997,0.707,0.323,0.572,0.533,���k��,5.4,�L
2023/09/15,15:00,0.535,0.808,0.493,0.997,0.709,0.320,0.572,0.533,���k��,4.8,�L
2023/09/15,15:10,0.535,0.808,0.493,0.996,0.710,0.321,0.574,0.532,��,6.1,��
2023/09/15,15:20,0.533,0.808,0.493,0.995,0.708,0.320,0.573,0.532,���k��,6.6,�L
2023/09/15,15:30,0.532,0.807,0.492,0.996,0.708,0.321,0.572,0.532,���k��,5.7,�L
2023/09/15,15:40,0.532,0.803,0.493,0.998,0.707,0.323,0.573,0.532,��,5.2,�L
2023/09/15,15:50,0.530,0.802,0.493,0.995,0.704,0.322,0.574,0.532,���k��,6.2,�L
2023/09/15,16:00,0.530,0.802,0.494,0.995,0.706,0.323,0.572,0.532,���k��,4.8,�L
2023/09/15,16:10,0.531,0.800,0.492,0.994,0.705,0.323,0.573,0.533,���k��,4.4,�L
2023/09/15,16:20,0.530,0.797,0.493,0.995,0.704,0.321,0.571,0.533,���k��,4.7,�L
2023/09/15,16:30,0.530,0.801,0.491,0.994,0.703,0.320,0.574,0.534,��,5.7,�L
2023/09/15,16:40,0.530,0.798,0.491,0.995,0.702,0.321,0.572,0.532,���k��,5.7,�L
2023/09/15,16:50,0.530,0.799,0.493,0.997,0.704,0.323,0.572,0.533,���k��,4.2,�L
2023/09/15,17:00,0.529,0.797,0.492,0.996,0.704,0.325,0.571,0.531,���k��,4.8,�L
2023/09/15,17:10,0.530,0.795,0.491,0.993,0.703,0.323,0.570,0.533,���k��,6.0,�L
2023/09/15,17:20,0.529,0.794,0.489,0.994,0.702,0.325,0.572,0.533,��,6.1,�L
2023/09/15,17:30,0.530,0.790,0.489,0.993,0.702,0.323,0.571,0.532,���k��,4.6,�L
2023/09/15,17:40,0.529,0.792,0.490,0.994,0.704,0.322,0.571,0.530,���k��,4.8,�L
2023/09/15,17:50,0.529,0.792,0.488,0.991,0.701,0.323,0.570,0.531,���k��,5.0,�L
2023/09/15,18:00,0.527,0.792,0.487,0.991,0.701,0.322,0.570,0.531,���k��,4.9,�L
2023/09/15,18:10,0.529,0.792,0.485,0.991,0.700,0.321,0.569,0.530,���k��,4.4,�L
2023/09/15,18:20,0.527,0.792,0.486,0.992,0.699,0.321,0.570,0.531,���k��,4.7,�L
2023/09/15,18:30,0.527,0.791,0.487,0.993,0.700,0.319,0.569,0.532,��,3.4,�L
2023/09/15,18:40,0.527,0.789,0.486,0.991,0.697,0.320,0.570,0.530,��,3.2,��
2023/09/15,18:50,0.527,0.791,0.484,0.990,0.698,0.319,0.569,0.532,��,3.5,��
2023/09/15,19:00,0.526,0.791,0.485,0.991,0.698,0.319,0.569,0.530,��,4.3,��
2023/09/15,19:10,0.525,0.788,0.485,0.992,0.700,0.318,0.568,0.530,��,3.7,��
2023/09/15,19:20,0.526,0.790,0.485,0.990,0.698,0.318,0.570,0.532,��,3.7,��
2023/09/15,19:30,0.525,0.789,0.484,0.990,0.699,0.318,0.567,0.532,��,2.9,��
2023/09/15,19:40,0.525,0.789,0.484,0.990,0.700,0.319,0.570,0.531,���쓌,3.7,�L
2023/09/15,19:50,0.525,0.789,0.484,0.990,0.699,0.317,0.571,0.531,���쓌,3.5,�L
2023/09/15,20:00,0.525,0.789,0.486,0.989,0.696,0.318,0.572,0.532,���쓌,2.8,�L
2023/09/15,20:10,0.527,0.791,0.487,0.992,0.700,0.319,0.570,0.531,�쓌,2.2,�L
2023/09/15,20:20,0.527,0.793,0.487,0.991,0.699,0.318,0.571,0.529,�쓌,2.3,�L
2023/09/15,20:30,0.530,0.793,0.487,0.993,0.701,0.320,0.570,0.531,�쓌,1.5,�L
2023/09/15,20:40,0.529,0.792,0.487,0.992,0.700,0.322,0.572,0.531,���쓌,1.7,�L
2023/09/15,20:50,0.531,0.790,0.489,0.993,0.701,0.324,0.570,0.532,��,2.6,�L
2023/09/15,21:00,0.530,0.791,0.489,0.992,0.700,0.323,0.570,0.529,��,2.6,�L
2023/09/15,21:10,0.528,0.791,0.489,0.990,0.698,0.324,0.571,0.532,��,2.6,�L
2023/09/15,21:20,0.526,0.788,0.490,0.990,0.698,0.322,0.570,0.531,��,2.6,�L
2023/09/15,21:30,0.526,0.787,0.488,0.988,0.697,0.322,0.569,0.530,���쓌,3.0,�L
2023/09/15,21:40,0.525,0.785,0.488,0.987,0.696,0.322,0.570,0.531,���쓌,2.8,�L
2023/09/15,21:50,0.524,0.784,0.485,0.988,0.696,0.321,0.570,0.531,�쓌,2.5,�L
2023/09/15,22:00,0.525,0.784,0.486,0.988,0.694,0.320,0.567,0.530,���쓌,2.9,�L
2023/09/15,22:10,0.523,0.784,0.485,0.986,0.693,0.319,0.566,0.529,���쓌,2.3,�L
2023/09/15,22:20,0.522,0.782,0.483,0.983,0.693,0.319,0.567,0.530,���쓌,1.9,�L
2023/09/15,22:30,0.521,0.781,0.483,0.983,0.692,0.319,0.568,0.531,�쓌,1.7,��
2023/09/15,22:40,0.521,0.781,0.484,0.983,0.691,0.318,0.568,0.528,�쓌,1.4,��
2023/09/15,22:50,0.520,0.782,0.483,0.984,0.691,0.316,0.566,0.528,���쓌,0.6,��
2023/09/15,23:00,0.523,0.782,0.482,0.983,0.691,0.316,0.568,0.528,��쓌,0.9,��
2023/09/15,23:10,0.523,0.784,0.481,0.982,0.692,0.316,0.567,0.528,-,CALM,��
2023/09/15,23:20,0.521,0.784,0.482,0.984,0.692,0.316,0.567,0.530,��쓌,0.6,��
2023/09/15,23:30,0.520,0.785,0.480,0.983,0.691,0.315,0.567,0.529,�쐼,1.1,��
2023/09/15,23:40,0.520,0.783,0.480,0.984,0.690,0.316,0.566,0.529,��,0.9,��
2023/09/15,23:50,0.519,0.783,0.481,0.981,0.689,0.316,0.568,0.527,-,CALM,��
